Location: Izdebno
(52.6670°N, 16.2170°E)
Time: 03:06:41
(UTC+02:00)

Transit 4A - Pass Details

Date: 27 February 2024
Orbit: 871 x 972 km, 66.8° (Epoch: 22 April)

Event Time Altitude Azimuth Distance (km) Brightness Sun altitude
Rises 10:37:01 0° 315° (NW) 3,498 10.4 25.9°
Reaches altitude 10° 10:40:01 10° 301° (WNW) 2,543 9.8 26.1°
Maximum altitude 10:44:24 22° 252° (WSW) 1,799 9.5 26.3°
Drops below altitude 10° 10:48:46 10° 203° (SSW) 2,514 11.0 26.6°
Sets 10:51:44 0° 189° (S) 3,449 11.8 26.7°
